Regional Weather Roundup
Issued by NWS Green Bay, WI

Home | Current Version | Previous Version | Graphics & Text | Print | Product List | Glossary Off
Versions: 1 2 3 4 5 6 7 8 9 10 11 12 13 14 15 16 17 18 19 20 21 22 23 24 25 26 27 28 29 30 31 32 33 34 35 36 37 38 39 40 41 42 43 44 45 46 47 48 49 50

394
ASUS43 KGRB 051100
RWRGRB

NORTH-CENTRAL AND NORTHEAST WISCONSIN REGIONAL WEATHER ROUNDUP
NATIONAL WEATHER SERVICE GREEN BAY WI
600 AM CDT THU MAY 05 2016

WIZ005-009-010>012-018-019-051200-
NORTH CENTRAL WISCONSIN

CITY           SKY/WX    TMP DP  RH WIND       PRES   REMARKS
IRONWOOD         N/A     28  28 100 CALM      29.99R
MANITOWISH WTR NOT AVBL
ARBOR VITAE    NOT AVBL
EAGLE RIVER    NOT AVBL
LAND O LAKES   NOT AVBL
RHINELANDER    PTCLDY    27  24  89 CALM      30.02R
PHILLIPS       NOT AVBL
ANTIGO         NOT AVBL
TOMAHAWK       NOT AVBL
MERRILL        NOT AVBL
$$

WIZ013-073-051200-
NORTHEAST WISCONSIN

CITY           SKY/WX    TMP DP  RH WIND       PRES   REMARKS
IRON MOUNTAIN  CLEAR     28  26  92 CALM      29.99R
MARINETTE      CLEAR     32  30  93 N7        30.01S
$$

WIZ017-030-035>037-045-051200-
CENTRAL WISCONSIN

CITY           SKY/WX    TMP DP  RH WIND       PRES   REMARKS
MEDFORD        NOT AVBL
WAUSAU         CLOUDY    36  31  82 N6        30.00R
MOSINEE        CLEAR     36  32  87 N7        30.01S
MARSHFIELD     PTCLDY    38  30  73 N3        30.02R
WISC RAPIDS    CLEAR     32  29  88 CALM      30.03R
STEVENS POINT  NOT AVBL
WAUPACA        NOT AVBL
SHAWANO        NOT AVBL
CLINTONVILLE   NOT AVBL
WAUTOMA        CLEAR     32  29  88 CALM      30.02R
$$

WIZ038-039-048-051-051200-
FOX VALLEY

CITY           SKY/WX    TMP DP  RH WIND       PRES   REMARKS
NWS GREEN BAY  CLEAR     34  31  88 N7        30.00R
APPLETON       PTCLDY    36  30  80 N7        29.98R
OSHKOSH        CLEAR     35  30  82 N10       29.99R
FOND DU LAC    CLEAR     34  31  88 NW7       29.99R
$$

WIZ022-050-052-051200-
EAST CENTRAL WISCONSIN

CITY           SKY/WX    TMP DP  RH WIND       PRES   REMARKS
EPHRAIM        NOT AVBL
STURGEON BAY   CLEAR     37  30  75 N12       30.00S
MANITOWOC      NOT AVBL
SHEBOYGAN      CLOUDY    38  32  79 N10       29.97R
$$

LMZ563-521-522-541>543-051200-
LAKESHORE

STATION/POSITION TIME  TEMP    WIND        PRES    VSBY  WAVE
                       AIR SEA DIR/SP/G                  HT/PER
                 (UTC) (F)     (DEG/KT/KT) (MB)    (MI)  (FT/S)
SHEBOYGAN LKSHOR 1000   41     340/ 13/ 14 1015.0R
KEWAUNEE LKSHORE 1000   37     330/  7/  9 1014.1R
ALGOMA MARINA    1015          320/ 12/ 15   N/A
NORTHPORT PIER   1000   39     330/ 11/ 14 1014.9S
N MID LAKE BUOY  0950   38 38  340/ 14/ 16 1014.4R         2/ 4
CHAMBERS ISLAND  1000   38     330/  9/ 13 1015.6R
MENOMINEE LKSHOR 1000   38     340/ 11/ 13 1014.3R
$$




USA.gov is the U.S. government's official web portal to all federal, state and local government web resources and services.